Printer-friendly version

IAU Minor Planet Center

Minor Planet Center

MPEC 2004-F64 : 2003 CJ11

The following Minor Planet Electronic Circular may be linked-to from your own Web pages, but must not otherwise be redistributed electronically.


Read MPEC 2004-F63 Read MPEC 2004-F65


M.P.E.C. 2004-F64                                Issued 2004 Mar. 26, 16:00 UT

     The Minor Planet Electronic Circulars contain information on unusual
         minor planets and routine data on comets.  They are published
   on behalf of Commission 20 of the International Astronomical Union by the
          Minor Planet Center, Smithsonian Astrophysical Observatory,
                          Cambridge, MA 02138, U.S.A.

         Supported in part by the Steven and Michele Kirsch Foundation
             Prepared using the Tamkin Foundation Computer Network

                              MPC@CFA.HARVARD.EDU
          URL http://cfa-www.harvard.edu/iau/mpc.html  ISSN 1523-6714

                                   2003 CJ11

                           Revision to MPEC 2003-C36

Additional Observations:
     K03C11J HC2004 03 15.50427 15 54 01.98 -14 02 01.0          21.4 V EF064291
     K03C11J HC2004 03 15.51491 15 54 01.77 -14 02 01.5          22.1 V EF064291
     K03C11J HC2004 03 26.39501 15 49 52.85 -13 46 16.4          21.9 V EF064291
     K03C11J HC2004 03 26.39937 15 49 52.69 -13 46 14.6          22.2 V EF064291
     K03C11J HC2004 03 26.40408 15 49 52.62 -13 46 15.9          22.3 V EF064291

Observer details:
291 LPL/Spacewatch II.  Observer M. Block.  1.8-m f/2.7 reflector + CCD.

First and last observations above in comparison with prediction:
Residuals in seconds of arc, reference and Delta-T
040315 291  0.9+  2.1+    040326 291  2.0+  1.3-    MPO 50745   +0.00057 day

Orbital elements:
2003 CJ11                                                            PHA 0.023
Epoch 2004 July 14.0 TT = JDT 2453200.5                 MPC
M 142.48448              (2000.0)            P               Q
n   0.23637083     Peri.  356.25056     +0.52644879     -0.79128378
a   2.5906384      Node    61.73325     +0.78894683     +0.31832407
e   0.8323185      Incl.   20.67756     +0.31688257     +0.52205341
P   4.17           H   15.2           G   0.15           U   3
Residuals in seconds of arc
030203 699  0.0   0.3-    030304 102  0.4+  1.4-    030327 071  0.9-  0.7-
030203 699  0.1+  0.2+    030304 102  0.3+  0.8-    030327 071  0.2+  1.1-
030203 699  0.5-  0.5-    030304 102  0.2-  0.1-    030327 071  0.8+  1.1-
030203 699  0.2-  0.2-    030304 102  0.1+  0.1+    030327 704  1.2+  1.0+
030204 J95  0.3-  1.4+    030304 102  0.6-  0.3+    030327 704  1.4+  1.2+
030204 J95  0.2-  0.0     030304 102  0.4-  0.3+    030327 704  0.5+  0.9+
030204 J95  0.8-  1.2+    030304 102  0.9-  0.9+    030327 704  1.4+  0.9+
030204 J95  0.2+  0.7-    030304 102 (4.1-  0.9-)   030329 084  0.7+  0.2+
030204 734  0.0   0.1-    030306 084  0.1+  0.2-    030402 084  0.6-  0.4+
030204 734  0.0   0.1-    030306 670  0.3+  0.5+    030404 699  0.7-  0.5+
030204 734  0.2+  0.0     030306 670  0.1-  0.0     030404 699  0.2-  0.2+
030205 557  0.3-  0.2-    030308 198  0.0   0.3-    030404 699  0.1+  0.2-
030205 557  0.3-  0.4-    030308 198  0.1+  0.3-    030404 699  0.3-  0.3+
030205 557  0.0   0.6-    030308 198  0.6+  0.3-    030404 608  0.5-  2.2-
030205 850  0.3-  0.0     030308 198  0.5+  0.6-    030404 608  0.3+  2.6-
030205 850  0.0   0.1-    030308 084  0.1+  0.1+    030404 608  0.4+  1.9-
030205 850  0.1+  0.2-    030309 084  0.2+  0.4-    030408 198  0.2+  0.1-
030205 850  0.2+  0.1-    030309 941  0.1+  0.5-    030408 198  0.1+  0.0
030206 926  0.3-  0.1+    030309 941  0.2-  0.2+    030408 198  0.0   0.1+
030206 926  0.8-  0.3+    030309 941  0.3+  0.3+    030408 608  0.5+  0.2-
030206 926  0.1+  0.1+    030309 941  0.3+  0.3+    030408 608  0.6+  0.1-
030206 670  0.5-  0.3-    030310 699  0.2+  0.1-    030408 608  0.7+  0.5-
030206 926  0.4-  0.9-    030310 699  0.4+  0.3+    030408 557  0.3+  0.1+
030206 926  0.8+  0.3+    030310 699  0.3+  0.6+    030408 557  0.1+  0.2+
030206 670  0.2+  0.1-    030310 699  0.2-  0.2-    030408 557  0.5+  0.3+
030209 046  0.2+  0.2-    030312 670  0.4-  0.4-    030408 557  0.7+  0.2+
030209 046  0.7+  0.4+    030312 670  0.7+  0.0     030408 587  0.2-  0.0
030209 046  2.1+  0.8-    030312 670  0.2-  0.1+    030408 587  0.0   0.1-
030209 046  0.9-  0.1-    030313 704  0.5+  0.4+    030408 587  0.2+  0.5-
030209 046  0.2-  0.2+    030313 704  1.4-  1.3+    030409 198  0.7+  0.3-
030209 046  0.6+  0.2+    030313 704  0.6+  0.1+    030409 198  0.4+  0.3-
030209 046  0.7-  0.3+    030313 704  0.3+  0.2+    030409 198  0.1-  0.0
030209 941  0.6+  0.3+    030313 704  0.4+  0.0     030410 704  0.1+  0.4+
030209 941  0.3+  0.4+    030316 204  0.2-  0.1-    030410 704  0.1+  0.5+
030209 941  0.4+  0.2+    030316 204  0.5-  0.0     030410 704  0.3+  0.1+
030209 941  0.3+  0.1+    030316 204  0.3-  0.3+    030410 704  0.4-  0.4+
030209 170  1.9+  0.0     030316 204  0.2-  0.4-    030410 704  0.5-  0.3+
030209 170  0.5+  0.6+    030316 204  0.2-  0.1-    030419 118  1.3+  1.1-
030209 170  0.2+  0.6-    030322 176  0.9+  0.1+    030420 118  0.0   0.1-
030209 170  0.5+  0.7-    030322 176  0.3+  0.2+    030420 084  0.2-  0.0
030210 J95  0.1-  0.3-    030322 176  0.0   0.3+    030420 941  0.1+  0.4-
030210 J95  0.2-  0.1+    030322 176  0.4-  0.4+    030420 941  0.4+  0.5-
030210 J95  0.1-  0.2-    030322 176  1.0-  0.6+    030421 941  0.3+  0.4-
030210 446  0.3+  0.1-    030322 084  1.0+  0.7-    030421 941  0.3+  0.3-
030210 446  0.0   0.2+    030322 215  0.6-  0.4+    030421 941  0.4+  0.3-
030210 446  0.3-  0.2+    030322 215  0.3-  0.6-    030424 113  0.2-  0.2-
030210 446  0.0   0.3+    030322 151  0.1+  0.2+    030424 113  0.1-  0.4-
030210 446  0.2-  1.1+    030322 151  0.3+  0.1+    030424 113  0.8-  0.1+
030211 H43  0.3+  0.9+    030322 151  0.2-  0.2-    030424 113  0.2-  0.4-
030211 H43  0.2+  0.8+    030323 113  0.1+  0.0     030424 113  0.7-  0.3+
030215 046  0.1+  0.1+    030323 113  0.0   0.1-    030425 704  0.3+  0.4+
030215 046  0.6-  0.5+    030323 113  0.1+  0.3-    030425 704  0.3-  1.0+
030215 046  0.6+  0.2+    030323 113  0.4+  0.0     030425 704  0.3-  0.7+
030215 046  1.2-  0.4+    030323 113  0.0   0.1-    030425 704  1.5-  0.4-
030215 046  0.4-  0.8+    030324 240  0.8-  0.5+    030425 704  0.5+  0.8+
030215 046  0.0   0.5+    030324 240  0.7-  0.5+    030503 711  0.2+  0.4+
030217 649  0.0   0.2+    030324 240  0.9-  0.6+    030503 711  0.8+  0.3+
030217 649  0.3-  0.1-    030324 240  1.0-  0.6+    030503 711  0.1+  0.3+
030217 649  0.1+  0.0     030324 240  0.4-  0.5+    030503 711  0.0   0.5+
030225 246  0.1-  0.1-    030326 151  0.1-  0.3-    030507 240  2.5-  0.2-
030225 246  0.1+  0.3-    030326 151  0.0   0.2-    030507 240  1.6-  0.2-
030225 246  0.1+  0.1-    030326 151  0.3-  0.4-    030507 240  0.1+  0.2+
030225 246  0.0   0.0     030326 151  0.1+  0.0     040315 291  0.1-  2.2+
030225 246  0.2-  0.1-    030326 151  0.2-  0.1-    040315 291  0.4-  0.9+
030228 704  0.2-  0.0     030326 151  0.0   0.4-    040326 291  0.3+  0.8-
030228 704  0.6+  0.6-    030326 151  0.1+  0.1+    040326 291  0.1-  0.5+
030228 704  0.3+  0.7-    030326 151  0.5-  0.2+    040326 291  0.9+  1.2-
030303 084  0.2+  0.0     030326 151  0.0   0.7-
030304 084  0.4+  0.3+    030326 151  0.7-  0.0

Ephemeris:
2003 CJ11                a,e,i = 2.59, 0.83, 21                  q = 0.4344
Date    TT    R. A. (2000) Decl.     Delta      r     Elong.  Phase     V
2004 03 26    15 50.07   -13 46.9    3.667    4.342   127.0    10.6    21.9
2004 04 05    15 44.51   -13 28.2    3.576    4.372   138.2     8.8    21.8
2004 04 15    15 37.42   -13 06.0    3.507    4.401   149.6     6.6    21.6
2004 04 25    15 29.13   -12 41.5    3.466    4.429   161.0     4.2    21.5
2004 05 05    15 20.10   -12 16.2    3.455    4.456   171.5     1.9    21.4
2004 05 15    15 10.89   -11 51.9    3.478    4.481   171.8     1.8    21.4
2004 05 25    15 02.04   -11 30.5    3.533    4.505   161.5     4.1    21.6
2004 06 04    14 54.05   -11 13.6    3.618    4.528   150.3     6.4    21.8
2004 06 14    14 47.28   -11 02.7    3.731    4.550   139.3     8.4    21.9

Kyle E. Smalley              (C) Copyright 2004 MPC           M.P.E.C. 2004-F64

Read MPEC 2004-F63 Read MPEC 2004-F65


Our Web policy. Index to the CBAT/MPC/ICQ pages.


Valid HTML 4.01!